Regional Weather Roundup
Issued by NWS Charleston, SC

Current Version | Previous Version | Graphics & Text | Print | Product List | Glossary On
Versions: 1 2 3 4 5 6 7 8 9 10 11 12 13 14 15 16 17 18 19 20 21 22 23 24 25 26 27 28 29 30 31 32 33 34 35 36 37 38 39 40 41 42 43 44 45 46 47 48 49 50
904
ASUS42 KCHS 110613
RWRCHS

REGIONAL WEATHER ROUNDUP
NATIONAL WEATHER SERVICE CHARLESTON SC
100 AM EST THU FEB 11 2016

NOTE: "FAIR" INDICATES FEW OR NO CLOUDS BELOW 12,000 FEET WITH NO
SIGNIFICANT WEATHER AND/OR OBSTRUCTIONS TO VISIBILITY.

NOT ALL STATIONS ARE QUALITY CONTROLLED BY THE NATIONAL
WEATHER SERVICE. USE DATA WITH CAUTION...ESPECIALLY
DEWPOINT OBSERVATIONS.

SCZ027-030-031-034>040-042>050-110700-
...SOUTHEAST SOUTH CAROLINA...

CITY           SKY/WX    TMP DP  RH WIND       PRES   REMARKS
N CHARLESTON   CLEAR     32  17  54 W9        30.17R WCI  24
6HR MIN TEMP:  31; 6HR MAX TEMP:  38;

WATERFRONT PRK   N/A     36  21  54 W5        30.01R WCI  32
MOUNT PLEASANT FAIR      36  18  48 W7        30.17S WCI  30
JOHNS ISLAND   FAIR      34  19  55 W6        30.17S WCI  29
PINOPOLIS        N/A     36  21  55 W12       30.06F WCI  27
MONCKS CORNER  FAIR      28  12  50 SW5       30.16S WCI  23
SUMMERVILLE    FAIR      32  21  64 SW7       30.18R WCI  26
BEAUFORT MCAS  CLEAR     38  16  40 W10       30.19S WCI  31
6HR MIN TEMP:  32; 6HR MAX TEMP:  39;

BEAUFORT ARPT  FAIR      37  19  48 W10       30.19R WCI  30
HILTON HEAD IS CLEAR     37  23  56 SW8       30.21R WCI  31
WALTERBORO     CLEAR     32  21  64 CALM      30.19R
ALLENDALE      FAIR      32  19  59 CALM      30.18S

...SOUTHERN MIDLANDS AND PEE DEE...

CITY           SKY/WX    TMP DP  RH WIND       PRES   REMARKS
GEORGETOWN     FAIR      28  19  69 SW5       30.16R WCI  23
KINGSTREE      FAIR      30  16  55 SW3       30.14S
ORANGEBURG     CLEAR     32  13  45 W9        30.16R WCI  24
6HR MIN TEMP:  28; 6HR MAX TEMP:  36;

BARNWELL       FAIR      32  18  55 CALM      30.17S
AIKEN          FAIR      30  12  47 W6        30.17S WCI  24
MANNING        FAIR      28  18  64 CALM      30.14F
COLUMBIA       CLEAR     32  12  43 W12       30.13S WCI  23
6HR MIN TEMP:  30; 6HR MAX TEMP:  35;

SUMTER         CLEAR     29  12  48 W5        30.11S WCI  24
6HR MIN TEMP:  29; 6HR MAX TEMP:  34;

FLORENCE       CLEAR     27  14  58 W6        30.12R WCI  20
6HR MIN TEMP:  27; 6HR MAX TEMP:  35;

MYRTLE BEACH   CLEAR     30  12  47 W7        30.15S WCI  23
N MYRTLE BEACH CLEAR     32  14  47 W6        30.12S WCI  26
6HR MIN TEMP:  31; 6HR MAX TEMP:  36;


$$

GAZ063-065-086>088-099>101-113>116-118-119-134>141-150-110700-
...SOUTHEAST GEORGIA...

CITY           SKY/WX    TMP DP  RH WIND       PRES   REMARKS
SAVANNAH ARPT  CLEAR     31  20  63 W6        30.20F WCI  25
6HR MIN TEMP:  31; 6HR MAX TEMP:  37;

HUNTER AAF     CLEAR     33  20  59 W8        30.18S WCI  26
6HR MIN TEMP:  32; 6HR MAX TEMP:  38;

FORT STEWART   CLEAR     34  20  55 W5        30.19S WCI  30
6HR MIN TEMP:  33; 6HR MAX TEMP:  38;

STATESBORO     CLEAR     39  12  33 W7        30.20R WCI  34
SYLVANIA       CLEAR     32  26  80 NW6       30.20R WCI  26
CLAXTON        FAIR      36  22  57 SW5       30.21S WCI  32

...CSRA...CENTRAL AND FAR SOUTHEAST GEORGIA...

CITY           SKY/WX    TMP DP  RH WIND       PRES   REMARKS
THOMSON        CLEAR     31  18  58 SW5       30.21S WCI  27
AUGUSTA-BUSH   CLEAR     33  11  39 W5        30.18S WCI  29
6HR MIN TEMP:  28; 6HR MAX TEMP:  36;

AUGUSTA-DANIEL NOT AVBL
SWAINSBORO     MOCLDY    34  18  51 W5        30.20S WCI  30
VIDALIA        CLEAR     32  21  64 SW3       30.21S
EASTMAN        FAIR      34  19  54 CALM      30.24S
HAZLEHURST     FAIR      35  21  57 CALM      30.21S
ALMA           CLEAR     33  21  61 W5        30.23R WCI  29
6HR MIN TEMP:  31; 6HR MAX TEMP:  39;

WAYCROSS       CLEAR     37  24  60 W3        30.23S
JESUP          FAIR      32  28  86 CALM      30.23R
BAXLEY         FAIR      36  25  64 CALM      30.22R
BRUNSWICK      CLEAR     36  25  64 W6        30.23R WCI  31
SAINT SIMONS   CLEAR     38  23  55 W7        30.22R WCI  33
6HR MIN TEMP:  38; 6HR MAX TEMP:  42;


$$

SCZ027-028-034-036>038-045-046-048>050-GAZ119-141-110700-
...LAKE AND SUPPLEMENTAL COASTAL OBSERVATIONS...

STATION/POSITION TIME  TEMP    WIND        PRES    WAVE   SWELL
                       AIR SEA DIR/SP/G            HT/PER HT/PER/DIR
                 (UTC) (F)     (DEG/KT/KT) (MB)    (FT/S) (FT/S/D)
WINYAH BAY       0445   32     250/  4     1019.0
LAKE MURRAY      0500   34     270/ 14/ 18 1019.3R
ACE BASIN NERRS  0445   37     250/  4     1021.0
FORT PULASKI     0500   40 50  240/  7/ 11 1022.8R
SAPELO ISLAND    0500   40     260/  6     1023.0R

$$

ANZ835-935-AMZ111-154-330-350-352-354-370-450-454-472-110700-
...C-MAN AND BUOY OBSERVATIONS...

STATION/POSITION TIME  TEMP    WIND        PRES    WAVE   SWELL
                       AIR SEA DIR/SP/G            HT/PER HT/PER/DIR
                 (UTC) (F)     (DEG/KT/KT) (MB)    (FT/S) (FT/S/D)
BUOY 41004       0550   46 63  280/ 25/ 35 1020.0R   8/ 7   2/12
BUOY 41008       0550   46 53  280/ 19/ 25 1022.6R   3/ 3
FOLLY BEACH CMAN 0600   35     270/  6/ 10 1021.7R
CAPERS NEARSHORE 0508   41     270/ 17/ 23 1020.8R
FRIPP NEARSHORE  0500   44     290/ 19/ 23 1020.9R


STATION/POSITION TIME  TEMP    WIND        PRES    WAVE   SWELL
                       AIR SEA DIR/SP/G            HT/PER HT/PER/DIR
                 (UTC) (F)     (DEG/KT/KT) (MB)    (FT/S) (FT/S/D)
5E ST. MARYS GA  0551      55                N/A     2/15   2/ 50/15
FRYING PAN BUOY  0500   43 61  270/ 27/ 35 1019.5R
BUOY 41025       0550   41 71  290/ 27/ 33 1015.6R   7/ 5   2/170/14
CAPE LOOKOUT NC  NOT AVBL
BUOY 41002       0550   54 68  290/ 27/ 37   N/A    13/10   8/260/10
BUOY 41010       0520   60 72              1021.9F
ST AUGUSTINE FL  0600   38 55  240/  5/  6 1024.3F


$$




USA.gov is the U.S. government's official web portal to all federal, state and local government web resources and services.